Regional Weather Roundup
Issued by NWS Newport/Morehead, NC

Current Version | Previous Version | Text Only | Print | Product List | Glossary On
Versions: 1 2 3 4 5 6 7 8 9 10 11 12 13 14 15 16 17 18 19 20 21 22 23 24 25 26 27 28 29 30 31 32 33 34 35 36 37 38 39 40 41 42 43 44 45 46 47 48 49 50
000
ASUS42 KMHX 250325
RWRMHX
WEATHER ROUNDUP FOR EASTERN NORTH CAROLINA
NATIONAL WEATHER SERVICE NEWPORT/MOREHEAD CITY NC
1100 PM EDT SAT JUN 24 2017

NOTE: "FAIR" INDICATES FEW OR NO CLOUDS BELOW 12,000 FEET
WITH NO SIGNIFICANT WEATHER AND/OR OBSTRUCTIONS TO VISIBILITY

NCZ015>017-031-032-045>047-102-103-250400-
NORTH COAST

CITY           SKY/WX    TMP DP  RH WIND       PRES   REMARKS
EDENTON        RAIN      73  70  93 CALM      29.99F
ELIZABETH CITY RAIN      73  73 100 E9        30.00F FOG
KITTY HAWK     RAIN      76  76 100 W3        29.98S
MANTEO         LGT RAIN  76  73  93 W5        29.99S

$$

NCZ045>047-081-094-103-104-250400-
CENTRAL COAST

CITY           SKY/WX    TMP DP  RH WIND       PRES   REMARKS
FRISCO         CLOUDY    79  75  87 SW17G26   29.99F

$$

NCZ095-097-098-100-101-250400-
SOUTHERN COAST

CITY           SKY/WX    TMP DP  RH WIND       PRES   REMARKS
BEAUFORT       LGT RAIN  78  74  87 W13       30.02R
CEDAR ISLAND   NOT AVBL
JACKSONVILLE   TSTM      74  74 100 SW8       30.02R FOG
PINEY ISLAND   CLOUDY   N/A N/A N/A SW12      30.02R FOG
WILMINGTON     RAIN      76  75  97 NW6       30.03S FOG


$$

NCZ011>013-027>030-043-044-078>080-089-090>093-098-250400-
COASTAL PLAIN

CITY           SKY/WX    TMP DP  RH WIND       PRES   REMARKS
AHOSKIE        LGT RAIN  72  71  99 S3        29.99S
CLINTON        PTCLDY    72  72 100 CALM      30.03R
ELIZABETHTOWN  NOT AVBL
GOLDSBORO      CLOUDY    73  73 100 S7        29.98S
GREENVILLE     CLOUDY    73  73 100 S5        30.01S
HAVELOCK       RAIN      74  72  93 S7        30.02S
KENANSVILLE    CLOUDY    73  72  94 S5        30.01S
KINSTON        CLOUDY    74  74  97 S3        30.00F
NEW BERN       CLOUDY    74  74 100 SW8       30.03R
RICHLANDS      CLOUDY    73  73 100 S7        30.04R
ROCKY MOUNT    PTCLDY    71  71 100 SW3       30.00R
WASHINGTON     LGT RAIN N/A N/A N/A CALM      30.00F
WHITEVILLE     CLOUDY    77  75  93 CALM      30.03R

$$

AMZ130-135-150-152-154-156-158-170-250-252-270-ANZ085-086-088-633-658-670-250400-
MARINE OBSERVATIONS

STATION/POSITION TIME  TEMP    WIND        PRES    WAVE   SWELL
                       AIR SEA DIR/SP/G            HT/PER HT/PER
                 (UTC) (F)     (DEG/KT/KT) (MB)    (FT/S) (FT/S)
CHESAPEAKE LIGHT NOT AVBL
64 E VA BEACH    0250   75 73  240/ 10/ 12 1015.4    5/ 7   5/ 7
DUCK             0300   76 62  270/ 14/ 20 1015.3
2 E DUCK         NOT AVBL
OREGON INLET     0300   77 83  210/  5/  6 1015.1
13E OREGON INLT  0248      74                N/A     4/ 7   3/ 7
HATTERAS CG      0300   77 80  240/ 12/ 20 1015.5
DIAMOND BUOY     0250   81 80  220/ 21/ 27 1015.2    6/ 7   2/ 9
CAPE LOOKOUT     0300   79     260/ 13/ 15 1016.1
BEAUFORT LAB     0300   78 78  270/  4/  9 1016.1
30 SE NEW RVR IN 0308   80 80  230/ 16/ 19 1016.8
30 SE NEW RVR IN 0313      80                N/A     6/ 6
27 SE WRIGHTSVLE 0308   79 80  220/ 16/ 21 1016.4
5 SE WRIGHTSVLE  0308   78 80  240/ 10/ 19 1016.5
225 S CAPE HAT   0250   81 81  210/ 14/ 16 1020.5    4/ 6   2/ 8
41 SE CHARLESTON 0310   81 81  200/ 17/ 21 1017.1

$$




USA.gov is the U.S. government's official web portal to all federal, state and local government web resources and services.